Regional Weather Roundup
Issued by NWS

Home | Current Version | Previous Version | Text Only | Print | Product List | Glossary Off
Versions: 1 2 3 4 5 6 7 8 9 10 11 12 13 14 15 16 17 18 19 20 21 22 23 24 25 26 27 28 29 30 31 32 33 34 35 36 37 38 39 40 41 42 43 44 45 46 47 48 49 50

000
ASUS43 KDTX 030710
RWRMI
MICHIGAN HOURLY REGIONAL WEATHER ROUNDUP
NATIONAL WEATHER SERVICE DETROIT/PONTIAC MI
300 AM EDT WED SEP 03 2014

NOTE: "FAIR" INDICATES FEW OR NO CLOUDS BELOW 12,000 FEET WITH NO
SIGNIFICANT WEATHER AND/OR OBSTRUCTION TO VISIBILITY.

MIZ047>049-052>055-059>063-066>070-074>076-081>083-030800-
SOUTHEAST LOWER MICHIGAN

CITY           SKY/WX    TMP DP  RH WIND       PRES   REMARKS
ADRIAN         CLEAR     59  58  96 CALM      29.99F
ALMA           CLEAR     56  55  97 CALM      29.97S FOG
ANN ARBOR      FOG       56  55  97 CALM      29.98S VSB 1/2
BAD AXE        CLEAR     58  56  94 CALM      29.97S
DETROIT CITY   CLEAR     67  60  78 W3        29.97S
DETROIT        MOCLDY    64  60  87 CALM      29.98S
FLINT          CLEAR     60  55  83 CALM      29.98S
GROSSE ILE     CLEAR     64  61  88 NW3       29.96S
HILLSDALE      CLEAR     57  57  99 CALM      30.00S
HOWELL         CLEAR     58  56  96 CALM      29.99S

CITY           SKY/WX    TMP DP  RH WIND       PRES   REMARKS
JACKSON        CLEAR     58  56  93 CALM      29.99S FOG
LAMBERTVILLE   FOG       61  59  94 CALM      29.98S VSB 1/2
LANSING        CLEAR     60  57  89 CALM      29.98F
LAPEER         NOT AVBL
MASON          CLEAR     57  56  96 CALM      29.99S
MONROE         CLEAR     59  57  94 CALM      29.96S
MT. CLEMENS    CLEAR     60  58  93 CALM      29.96S
PONTIAC        CLEAR     63  58  83 CALM      29.98S
PORT HURON     FOG       54  54 100 MISG      29.97S VSB 3/4
TRI CITIES     CLEAR     61  57  87 SW5       29.97S
YPSILANTI      CLEAR     63  58  83 CALM      29.99S HAZE
$$
MIZ043>046-050>051-056>058-064>065-071>073-077>080-030800-
SOUTHWEST LOWER MICHIGAN

CITY           SKY/WX    TMP DP  RH WIND       PRES   REMARKS
BATTLE CREEK   MOCLDY    64  59  83 SW3       29.99S
BENTON HARBOR  PTCLDY    61  60  97 CALM      29.97F
BIG RAPIDS     CLEAR     56  56 100 S3        29.97R
COLDWATER      CLEAR     61  60  97 CALM      29.99S
HOLLAND        CLEAR     63  60  90 S3        29.98S
GRAND RAPIDS   CLEAR     61  60  97 CALM      29.98S
KALAMAZOO      PTCLDY    64  59  83 CALM      29.99S
MARSHALL       CLEAR     56  56  97 CALM      29.98F
MUSKEGON       CLEAR     66  63  90 S3        29.97S
$$
MIZ016>042-030800-
NORTHERN LOWER MICHIGAN

CITY           SKY/WX    TMP DP  RH WIND       PRES   REMARKS
ALPENA         CLEAR     53  51  93 CALM      29.93S
BEAVER ISLAND  CLEAR     63  62  98 S5        29.89S
BELLAIRE       CLEAR     53  52  95 CALM      29.93R FOG
CADILLAC       CLEAR     57  56  97 CALM      29.97R
CHARLEVOIX     CLEAR     59  59  99 SE3       29.94R
FRANKFORT      SUNNY     68  63  83 SW6       29.93R
GAYLORD        CLEAR     57  55  93 SW3       29.95R
GRAYLING       CLEAR     49  49  99 CALM      29.96S
HARBOR SPRINGS CLEAR     60  58  90 SW3       29.91S
HOUGHTON LAKE  CLEAR     63  57  81 SW6       29.97R
MANISTEE       CLEAR     55  54  94 E3        29.95R
OSCODA         CLEAR     56  55  97 CALM      29.94R
PELLSTON       PTCLDY    53  52  96 CALM      29.91S FOG
TRAVERSE CITY  CLEAR     64  57  78 SW3       29.92R
$$
MIZ007>008-015-030800-
EASTERN UPPER MICHIGAN

CITY           SKY/WX    TMP DP  RH WIND       PRES   REMARKS
KINROSS        CLEAR     57  57 100 S5        29.88S
MACKINAC ISLAN CLEAR     60  60 100 S9        29.89S
NEWBERRY       CLEAR     56  56  99 SW8       29.87S
S. S. MARIE    FOG       52  51  97 CALM      29.88R VSB 1/4
$$
MIZ004>006-011>014-085-030800-
CENTRAL UPPER MICHIGAN

CITY           SKY/WX    TMP DP  RH WIND       PRES   REMARKS
MANISTIQUE     MOCLDY    61  61 100 CALM      29.87R FOG
ESCANABA       CLEAR     52  48  87 CALM      29.88S
MENOMINEE      CLEAR     55  54  94 CALM      29.91S
SAWYER-GWINN   CLEAR     54  50  87 S7        29.88R
$$
MIZ001>003-009>011-084-030800-
WESTERN UPPER MICHIGAN

CITY           SKY/WX    TMP DP  RH WIND       PRES   REMARKS
IRON MOUNTAIN  CLEAR     51  49  92 CALM      29.90R
HOUGHTON       PTCLDY    57  52  83 SW8       29.83F
COPPER HARBOR    N/A     65  49  56 W9        29.79S
$$

ABBREVIATIONS USED IN REMARKS
   TC - TEMPERATURE IN CELSIUS
  WCI - WIND CHILL INDEX
   HX - HEAT INDEX
  VSB - VISIBILITY



USA.gov is the U.S. government's official web portal to all federal, state and local government web resources and services.